Vertical_Velocity
-2 1 1 -0 -0 6 5 5 0 2 2 1 -5 2 -15 -2 2 3 4 2 1 2 2 1 -1 -1 -1 -0 3 2 1 1 3 -5 -1 -1 0 1 0 1 1 1 -0
-1 3 2 5 2 3 -2 -2 0 3 1 2 -7 7 -0 8 9 1 1 -3 -1 -1 -1 -1 0 0 -0 1 0 -1 -7 2 3 1 2 -1 0 -0 0 0 0 1 1
-8 -3 0 -3 5 1 3 -4 -4 1 6 -8 5 19 5 8 5 -0 -1 -1 1 3 1 2 2 1 -0 -3 -2 -0 -2 -6 -2 3 0 -4 -0 -1 -1 -1 0 0 1
5 2 3 0 -4 3 10 2 -2 -0 5 -1 9 -5 -17 -13 -17 -2 7 -2 -2 -1 2 2 3 3 1 0 2 -3 3 2 -3 -1 1 1 -2 -3 -1 0 -0 -1 -1
7 -5 -7 -0 -1 -0 -0 -0 2 3 0 -3 -4 -3 -4 6 11 4 1 2 3 3 -0 2 2 2 2 1 -1 -3 -3 -1 4 1 -1 1 1 -2 -1 -1 -0 -0 -0
-4 -1 -6 5 -0 0 -0 2 -2 -1 -0 1 5 2 -1 -5 -2 -7 -1 -6 5 3 4 -1 1 2 1 4 2 5 2 1 2 3 2 -0 -0 -2 -1 -1 -0 2 0
6 3 -0 -1 6 0 6 2 -1 -1 -2 -3 -0 -7 6 0 -4 5 -8 -2 -5 -4 -1 2 -0 1 4 -2 5 3 0 -1 2 1 -1 1 -1 1 -3 -1 0 -1 -1
-6 -3 -5 -3 -2 2 3 6 -2 3 0 -0 -1 14 -6 6 -3 6 -2 6 -2 -10 1 -3 3 -1 2 5 -1 7 6 3 -4 -1 -0 0 0 3 0 -2 -6 -1 -1
0 -6 1 1 3 3 -3 1 -3 -2 6 -1 1 -6 -2 8 -7 -1 -0 12 2 2 2 -6 5 1 5 3 4 -2 0 3 3 3 2 2 3 2 0 4 3 -3 -2
2 2 2 -0 3 4 -1 12 5 -9 -2 -3 -1 -5 -7 -8 15 1 2 -5 4 -2 2 2 7 0 1 4 4 2 3 4 5 4 3 3 1 -1 -0 -1 -2 2 2
1 -5 -1 0 -1 4 3 3 10 -2 -2 -1 -0 2 -3 1 9 0 5 -6 5 -0 -3 2 4 -0 5 -0 4 -5 -0 -1 2 0 5 3 4 1 -3 1 -0 -2 -3
-0 4 -1 4 1 -3 -3 -0 13 -4 -0 1 -5 -4 3 -3 4 0 3 -3 0 4 -0 -2 0 0 0 0 3 5 0 -1 -0 2 2 2 -2 0 2 -3 -2 -1 0
5 4 5 -2 -2 2 5 5 12 -7 4 3 -1 0 -0 -0 0 4 1 7 -4 -0 -3 4 -8 0 5 -2 4 5 2 2 1 1 1 -2 2 -1 1 -2 -3 -3 -2
6 11 10 10 12 8 -3 -0 6 8 1 3 1 -1 -4 -5 -1 3 -3 -1 5 -5 6 0 -4 -2 3 3 5 4 2 -1 2 -0 -1 -3 -3 -2 -1 -1 -1 -4 -4
0 3 3 2 3 9 10 12 3 3 2 2 3 -2 2 5 1 1 0 1 4 4 4 -1 3 1 0 -0 0 0 -0 1 -0 1 -0 -2 0 -5 2 -3 -2 -1 -2
2 5 3 5 4 3 5 11 9 -3 -1 1 2 1 2 3 -1 2 7 0 4 2 4 -4 4 -4 0 -2 7 7 0 0 2 -0 -4 1 -3 -0 -1 -1 -0 -0 -2
0 0 -1 1 2 1 2 7 1 4 2 1 -0 -3 0 2 -4 -0 1 2 3 2 -6 1 -1 3 -1 4 3 3 -1 1 0 -3 0 -2 -2 2 -2 -1 2 -3 -2
1 4 0 -3 -0 -2 -3 3 4 11 5 1 -2 1 3 3 -1 4 0 7 2 -3 -1 1 6 2 3 5 3 5 2 5 -1 2 2 4 1 -2 1 2 -2 -4 -1
1 2 2 -3 0 -2 1 2 5 3 5 1 -1 1 5 -3 -4 -2 -2 6 4 -1 -5 3 1 -5 4 10 -2 7 4 2 4 3 7 1 -1 -0 -2 -0 -4 -2 3
-0 -4 -3 1 6 5 1 5 3 1 2 -2 -3 3 3 -5 -1 1 -1 -0 7 5 6 2 3 8 4 3 3 -0 -1 1 0 2 3 0 -1 2 0 -6 -3 1 1
0 1 -1 -1 0 -1 4 6 3 2 0 3 3 5 1 2 4 0 1 -0 -1 3 2 2 13 4 -3 7 9 -3 7 5 -1 2 0 -1 0 -1 -3 -5 2 -1 0
-6 -1 -2 -3 0 1 -0 8 4 4 4 3 0 1 -1 -4 -1 2 0 2 4 4 8 -4 9 7 2 7 -2 1 14 3 3 0 1 2 -2 -4 -4 -2 -2 -2 -1
-0 1 -1 -2 -1 -1 3 4 0 7 4 10 7 3 3 5 4 2 1 1 5 7 4 5 5 -3 6 2 3 8 6 0 2 1 3 -4 -8 1 -4 -1 -2 2 -0
-2 0 3 0 -2 -0 -0 -1 0 1 8 5 5 8 11 0 2 6 6 4 2 3 1 2 4 -1 -1 1 1 1 2 -2 -0 4 -5 -5 -4 -2 -1 -0 1 0 0
-2 1 -0 1 1 2 -2 -1 1 1 2 6 2 -2 7 6 2 8 5 3 6 8 -2 -1 3 -12 -4 -5 -4 -7 -3 -8 -4 -2 -9 -1 0 -1 -2 -0 2 -2 -1
1 -1 1 4 1 1 0 -0 0 1 2 1 4 3 -4 6 3 0 1 10 6 0 2 3 -1 4 5 0 1 -7 -0 5 -1 -7 -1 -0 -0 -1 -1 2 1 -4 -2
Height
1410 1416 1422 1429 1435 1440 1444 1448 1454 1460 1466 1472 1479 1486 1494 1499 1505 1511 1516 1521 1526 1531 1536 1540 1544 1548 1552 1556 1560 1564 1567 1569 1571 1572 1577 1580 1582 1583 1584 1583 1583 1583 1582
1405 1410 1415 1422 1427 1433 1438 1445 1449 1456 1462 1467 1476 1484 1489 1494 1501 1508 1515 1520 1525 1529 1534 1538 1541 1545 1550 1554 1558 1561 1564 1569 1571 1573 1575 1580 1584 1583 1584 1584 1584 1584 1583
1395 1402 1408 1414 1422 1426 1431 1438 1445 1452 1458 1464 1473 1480 1485 1492 1498 1505 1512 1516 1521 1527 1531 1535 1539 1543 1547 1551 1555 1559 1562 1565 1570 1573 1575 1577 1579 1581 1583 1584 1584 1584 1583
1384 1391 1398 1406 1413 1420 1426 1433 1441 1446 1453 1459 1466 1469 1477 1484 1492 1498 1505 1512 1519 1524 1529 1534 1538 1542 1546 1549 1553 1558 1562 1565 1567 1571 1573 1574 1577 1579 1581 1582 1583 1583 1583
1374 1382 1390 1397 1405 1414 1421 1428 1435 1441 1447 1453 1460 1467 1474 1484 1488 1494 1501 1509 1515 1521 1526 1531 1535 1540 1544 1548 1552 1555 1560 1565 1569 1570 1572 1574 1575 1577 1578 1578 1580 1581 1581
1370 1375 1382 1391 1398 1406 1414 1421 1428 1435 1441 1448 1453 1462 1469 1476 1485 1490 1499 1505 1512 1518 1523 1528 1533 1537 1542 1547 1550 1555 1559 1563 1568 1570 1572 1573 1575 1575 1577 1577 1578 1580 1579
1362 1369 1376 1384 1390 1397 1404 1411 1420 1427 1434 1443 1449 1458 1466 1470 1479 1486 1492 1499 1507 1513 1519 1523 1529 1535 1540 1545 1550 1553 1557 1561 1565 1568 1570 1572 1573 1574 1575 1577 1577 1577 1578
1357 1363 1369 1376 1382 1389 1398 1404 1412 1421 1429 1437 1445 1453 1462 1469 1474 1482 1488 1493 1501 1507 1516 1522 1527 1533 1538 1543 1548 1552 1556 1559 1563 1566 1568 1570 1571 1572 1572 1573 1575 1576 1576
1347 1354 1360 1367 1374 1381 1390 1397 1406 1415 1424 1431 1441 1447 1454 1465 1469 1477 1485 1490 1496 1503 1512 1519 1525 1530 1535 1540 1545 1550 1555 1558 1561 1564 1566 1568 1569 1571 1572 1573 1572 1574 1574
1344 1349 1355 1362 1369 1376 1385 1394 1401 1409 1418 1426 1435 1442 1451 1458 1467 1472 1479 1486 1493 1501 1507 1515 1522 1527 1533 1538 1541 1548 1553 1557 1560 1562 1564 1566 1567 1569 1571 1572 1573 1573 1573
1337 1344 1351 1358 1366 1372 1381 1388 1396 1402 1412 1420 1429 1438 1446 1455 1461 1468 1475 1481 1489 1495 1504 1511 1519 1525 1531 1536 1540 1545 1551 1555 1559 1561 1564 1565 1567 1567 1569 1571 1571 1571 1572
1332 1337 1344 1354 1361 1367 1376 1385 1393 1399 1407 1414 1424 1434 1443 1449 1457 1463 1470 1477 1486 1493 1500 1508 1516 1523 1528 1533 1537 1541 1545 1552 1556 1560 1562 1564 1566 1567 1567 1568 1570 1570 1570
1331 1334 1342 1351 1357 1364 1371 1380 1389 1396 1404 1411 1419 1428 1436 1444 1451 1459 1464 1474 1482 1489 1496 1503 1511 1518 1524 1530 1535 1539 1543 1549 1555 1558 1561 1562 1563 1567 1566 1567 1567 1568 1568
1338 1343 1349 1354 1358 1362 1370 1378 1388 1394 1400 1407 1414 1422 1430 1439 1446 1454 1462 1469 1476 1482 1492 1500 1507 1514 1521 1527 1533 1537 1542 1547 1552 1555 1558 1560 1563 1565 1565 1564 1565 1565 1565
1347 1351 1352 1355 1358 1362 1368 1376 1384 1391 1397 1403 1411 1418 1426 1435 1442 1449 1457 1465 1472 1478 1487 1492 1501 1509 1517 1524 1529 1534 1539 1543 1548 1551 1556 1557 1560 1563 1563 1563 1563 1563 1563
1353 1354 1356 1357 1359 1364 1371 1376 1381 1388 1394 1399 1407 1415 1423 1430 1436 1442 1450 1460 1467 1473 1481 1488 1496 1503 1511 1519 1525 1530 1535 1540 1546 1549 1552 1555 1557 1559 1559 1560 1560 1560 1560
1366 1363 1362 1361 1361 1364 1368 1374 1379 1383 1389 1397 1405 1412 1419 1425 1431 1439 1446 1454 1460 1468 1475 1485 1492 1499 1507 1515 1524 1529 1534 1539 1543 1547 1550 1551 1554 1555 1556 1558 1558 1557 1558
1369 1369 1368 1365 1364 1363 1365 1370 1376 1382 1388 1395 1402 1408 1415 1421 1427 1435 1442 1449 1456 1464 1472 1480 1486 1496 1505 1512 1519 1525 1531 1537 1541 1544 1547 1548 1550 1553 1555 1555 1555 1557 1558
1376 1372 1371 1370 1368 1364 1363 1369 1375 1381 1386 1392 1398 1404 1410 1416 1423 1431 1438 1444 1450 1458 1466 1473 1481 1489 1501 1508 1516 1522 1528 1534 1537 1541 1543 1545 1547 1550 1553 1555 1555 1557 1556
1382 1377 1375 1372 1368 1364 1364 1369 1373 1379 1384 1389 1395 1401 1405 1412 1420 1428 1435 1441 1448 1454 1462 1469 1478 1486 1496 1505 1511 1519 1525 1529 1533 1538 1539 1543 1547 1551 1551 1553 1555 1555 1554
1382 1380 1377 1373 1370 1367 1368 1370 1374 1378 1382 1388 1393 1398 1404 1410 1418 1425 1432 1438 1443 1451 1458 1467 1474 1481 1491 1500 1507 1515 1522 1524 1529 1534 1538 1542 1546 1548 1549 1553 1554 1554 1552
1384 1381 1378 1375 1374 1371 1371 1368 1373 1376 1381 1387 1392 1397 1403 1409 1416 1422 1428 1434 1441 1448 1456 1462 1471 1479 1488 1498 1505 1514 1521 1524 1529 1533 1537 1540 1543 1547 1548 1550 1551 1551 1551
1386 1383 1381 1379 1378 1376 1374 1374 1374 1376 1381 1384 1390 1395 1400 1405 1413 1418 1424 1431 1438 1445 1452 1456 1465 1473 1485 1494 1505 1512 1517 1524 1529 1532 1535 1538 1543 1546 1547 1549 1549 1549 1548
1388 1386 1384 1381 1380 1379 1377 1377 1378 1379 1382 1384 1385 1394 1399 1405 1411 1417 1424 1430 1437 1444 1450 1457 1461 1470 1483 1493 1498 1507 1513 1523 1526 1529 1533 1537 1542 1544 1546 1547 1547 1547 1546
1392 1389 1386 1384 1382 1381 1381 1381 1381 1384 1386 1388 1392 1394 1401 1406 1412 1420 1426 1433 1439 1443 1447 1455 1461 1464 1478 1488 1496 1504 1511 1519 1525 1527 1532 1536 1539 1541 1544 1545 1545 1544 1545
1395 1392 1390 1388 1386 1385 1385 1385 1386 1387 1389 1390 1393 1396 1404 1410 1415 1421 1429 1437 1443 1448 1454 1461 1467 1474 1479 1488 1498 1507 1515 1518 1522 1526 1531 1534 1537 1539 1542 1543 1542 1543 1544